N585K -KMYR

Flight info

Callsign N585K
Flight time N/A
Altitude
Route
Aircraft B6/L-DOV/C

Departure

Time N/A
Airport -

Arrival

Time 2026-04-19 23:36
Airport Myrtle Beach International Airport (KMYR)
Time Latitude Longitude Altitude Speed Heading
2026-04-19 23:16 32.80150 -79.15543 14444 ft 242 kts
2026-04-19 23:17 32.81770 -79.15127 14291 ft 241 kts
2026-04-19 23:17 32.83413 -79.14707 14108 ft 242 kts
2026-04-19 23:17 32.85068 -79.14283 13854 ft 243 kts
2026-04-19 23:17 32.86720 -79.13858 13577 ft 243 kts
2026-04-19 23:18 32.88367 -79.13435 13299 ft 242 kts
2026-04-19 23:18 32.90011 -79.13013 13031 ft 242 kts
2026-04-19 23:18 32.91654 -79.12592 12765 ft 241 kts
2026-04-19 23:18 32.93293 -79.12170 12501 ft 241 kts
2026-04-19 23:19 32.94932 -79.11750 12238 ft 241 kts
2026-04-19 23:19 32.96544 -79.11335 11987 ft 240 kts
2026-04-19 23:19 32.98177 -79.10915 11733 ft 240 kts
2026-04-19 23:19 32.99805 -79.10496 11483 ft 240 kts
2026-04-19 23:20 33.01434 -79.10077 11238 ft 239 kts
2026-04-19 23:20 33.03059 -79.09658 10996 ft 239 kts
2026-04-19 23:20 33.04680 -79.09242 10754 ft 238 kts
2026-04-19 23:20 33.06300 -79.08854 10523 ft 237 kts
2026-04-19 23:21 33.07921 -79.08474 10297 ft 237 kts
2026-04-19 23:21 33.09501 -79.07819 10061 ft 246 kts 20°
2026-04-19 23:21 33.10992 -79.06875 9820 ft 243 kts 20°
2026-04-19 23:21 33.12502 -79.06022 9465 ft 238 kts 15°
2026-04-19 23:22 33.14027 -79.05304 9104 ft 234 kts 14°
2026-04-19 23:22 33.15539 -79.04590 8754 ft 233 kts 15°
2026-04-19 23:22 33.17037 -79.03854 8413 ft 232 kts 16°
2026-04-19 23:22 33.18527 -79.03119 8079 ft 231 kts 16°
2026-04-19 23:23 33.20009 -79.02391 7764 ft 230 kts 16°
2026-04-19 23:23 33.21482 -79.01669 7451 ft 228 kts 16°
2026-04-19 23:23 33.22925 -79.00960 7140 ft 227 kts 17°
2026-04-19 23:23 33.24382 -79.00249 6828 ft 226 kts 15°
2026-04-19 23:24 33.25831 -78.99534 6515 ft 225 kts 17°
2026-04-19 23:24 33.27272 -78.98819 6192 ft 223 kts 17°
2026-04-19 23:24 33.28695 -78.98129 5863 ft 219 kts 16°
2026-04-19 23:24 33.30092 -78.97449 5552 ft 215 kts 18°
2026-04-19 23:25 33.31443 -78.96794 5234 ft 200 kts 16°
2026-04-19 23:25 33.32671 -78.96169 4890 ft 185 kts 19°
2026-04-19 23:25 33.33809 -78.95588 4606 ft 175 kts 17°
2026-04-19 23:25 33.34910 -78.95069 4339 ft 166 kts 17°
2026-04-19 23:26 33.35952 -78.94557 4069 ft 160 kts 18°
2026-04-19 23:26 33.36973 -78.94055 3802 ft 158 kts 19°
2026-04-19 23:26 33.37987 -78.93561 3534 ft 157 kts 18°
2026-04-19 23:26 33.38979 -78.93069 3289 ft 153 kts 19°
2026-04-19 23:27 33.39960 -78.92587 2991 ft 153 kts 18°
2026-04-19 23:27 33.40918 -78.92115 2633 ft 147 kts 19°
2026-04-19 23:27 33.41852 -78.91655 2308 ft 147 kts 19°
2026-04-19 23:27 33.42799 -78.91191 2060 ft 148 kts 20°
2026-04-19 23:28 33.43753 -78.90719 1804 ft 148 kts 21°
2026-04-19 23:28 33.44693 -78.90251 1625 ft 144 kts 21°
2026-04-19 23:28 33.45589 -78.89808 1583 ft 132 kts 19°
2026-04-19 23:28 33.46446 -78.89632 1584 ft 122 kts
2026-04-19 23:29 33.47287 -78.89569 1590 ft 120 kts
2026-04-19 23:29 33.48112 -78.89427 1582 ft 119 kts
2026-04-19 23:29 33.48922 -78.89331 1587 ft 116 kts
2026-04-19 23:29 33.49709 -78.89211 1584 ft 116 kts
2026-04-19 23:30 33.50530 -78.89073 1587 ft 121 kts
2026-04-19 23:30 33.51379 -78.88929 1597 ft 126 kts
2026-04-19 23:30 33.52255 -78.89007 1604 ft 128 kts 353°
2026-04-19 23:30 33.53144 -78.89167 1607 ft 130 kts 352°
2026-04-19 23:31 33.54038 -78.89363 1589 ft 125 kts 351°
2026-04-19 23:31 33.54819 -78.89544 1604 ft 109 kts 351°
2026-04-19 23:31 33.55550 -78.89724 1607 ft 105 kts 349°
2026-04-19 23:31 33.56260 -78.89902 1601 ft 105 kts 349°
2026-04-19 23:32 33.56965 -78.90080 1602 ft 105 kts 349°
2026-04-19 23:32 33.57679 -78.90255 1602 ft 104 kts 349°
2026-04-19 23:32 33.58397 -78.90438 1608 ft 106 kts 351°
2026-04-19 23:32 33.59080 -78.90606 1579 ft 91 kts 351°
2026-04-19 23:33 33.59671 -78.90753 1458 ft 86 kts 350°
2026-04-19 23:33 33.60247 -78.90900 1343 ft 83 kts 352°
2026-04-19 23:33 33.60835 -78.91045 1232 ft 90 kts 350°
2026-04-19 23:33 33.61460 -78.91200 1104 ft 92 kts 351°
2026-04-19 23:34 33.62087 -78.91358 984 ft 92 kts 350°
2026-04-19 23:34 33.62706 -78.91514 861 ft 92 kts 351°
2026-04-19 23:34 33.63311 -78.91662 744 ft 91 kts 347°
2026-04-19 23:34 33.63929 -78.91817 627 ft 90 kts 347°
2026-04-19 23:35 33.64567 -78.91993 489 ft 97 kts 345°
2026-04-19 23:35 33.65160 -78.92155 375 ft 84 kts 348°
2026-04-19 23:35 33.65741 -78.92278 275 ft 82 kts 347°
2026-04-19 23:35 33.66296 -78.92416 185 ft 84 kts 346°
2026-04-19 23:36 33.66847 -78.92552 53 ft 72 kts 347°
2026-04-19 23:36 33.67243 -78.92654 26 ft 36 kts 347°
2026-04-19 23:36 33.67426 -78.92720 26 ft 29 kts 312°
2026-04-19 23:36 33.67414 -78.92833 26 ft 4 kts 251°
2026-04-19 23:37 33.67397 -78.92917 26 ft 18 kts 258°
2026-04-19 23:37 33.67381 -78.92992 26 ft 5 kts 256°
2026-04-19 23:37 33.67419 -78.93057 26 ft 15 kts 345°
2026-04-19 23:37 33.67465 -78.93155 26 ft 11 kts 261°
2026-04-19 23:38 33.67446 -78.93243 26 ft 7 kts 249°
2026-04-19 23:38 33.67426 -78.93310 26 ft 6 kts 242°
2026-04-19 23:38 33.67406 -78.93356 26 ft 8 kts 236°
2026-04-19 23:38 33.67375 -78.93361 26 ft 1 kts 67°
2026-04-19 23:39 33.67375 -78.93360 26 ft 0 kts 67°